STARLINK-1410 (45705 NORAD) Tracking and Keplerian Element Data

This shows tracking and keplerian element data for the satellite.

Feedback or suggestion? Click here.




ElementValue
Catalog45705
NameSTARLINK-1410
Epoch Orbit655
Epoch Day192.16668981
Epoch Year2020
RAAN353.6629
Inclination53.001
Eccentricity0.0001347
Argument of Perigee86.4985
Mean Anonmoly70.6979
Mean Motion15.3195232
Decay Rate-0.01071696
L11 45705U 20035BA 20192.16668981 -.01071696 00000-0 -37361-1 0 9993
L22 45705 53.0010 353.6629 0001347 86.4985 70.6979 15.31952320 6556

Live tracking and technical data element details for STARLINK-1410 (NORAD 45705). STARLINK-1410 can be tracked NOW for your location showing map with azimuth and elevation plus other details from your city location.

Track the satellite on the map from your city or location and see movement details for azimuth, elevation, latitude, longitude, range, height, and movement on the map or in text.







IsCatalogInMostPopularTable: catalog: 45705, numindb: 6
Update: records affected: 1



GetName: 45705 STARLINK-1410

Hit Count: updated at: Fri, 10 Jul 2020 17:06:59 GMT